Weather History for Ocean City, MD

Change the Weather History Date:

Saturday, February 15, 2014

  Actual Average (KSBY) Record (KSBY)
Temperature  
Mean Temperature 40 °F 38 °F  
Max Temperature 46 °F 47 °F 73 °F (1949)
Min Temperature 30 °F 28 °F 5 °F (1916)
Degree Days  
Heating Degree Days 26 27  
Month to date heating degree days 426  
Since 1 July heating degree days 2967  
Cooling Degree Days 0 0  
Month to date cooling degree days 0  
Year to date cooling degree days 0  
Moisture  
Dew Point 32 °F    
Average Humidity 80    
Maximum Humidity 93    
Minimum Humidity 56    
Precipitation  
Precipitation 0.00 in 0.12 in 1.49 in (1953)
Month to date precipitation 1.78  
Year to date precipitation 5.39  
Snow  
Snow 0.00 in 0.10 in 2.00 in (1940)
Month to date snowfall 2.0  
Since 1 July snowfall 7.0  
Snow Depth -    
Sea Level Pressure  
Sea Level Pressure 29.66 in    
Wind  
Wind Speed 9 mph (NW)    
Max Wind Speed 23 mph    
Max Gust Speed 36 mph    
Visibility 8 miles    
Events Rain , Snow    
T = Trace of Precipitation, MM = Missing Value Source: NWS Daily Summary

Daily Weather History Graph

Daily Weather History Graph

Search for Another Location

Airport:

Trip Planner

Search our weather history database for the weather conditions in past years. The results will help you decide how hot, cold, wet, or windy it might be!

Date:

Astronomy

Feb. 15, 2014 Rise Set
Actual Time 6:50 AM EST 5:38 PM EST
Civil Twilight 6:23 AM EST 6:05 PM EST
Nautical Twilight 5:52 AM EST 6:36 PM EST
Astronomical Twilight 5:22 AM EST 7:07 PM EST
Moon 6:35 PM EST (2/15) 6:49 AM EST (2/15)
Length of Visible Light 11h 42m
Length of Day
10h 47m
Full, 100% of the Moon is Illuminated
Feb 15
Full
Feb 22
Last Quarter
Mar 1
New
Mar 8
First Quarter
Mar 16
Full

Hourly Weather History & Observations

Time (EST) Temp. Windchill Dew Point Humidity Pressure Visibility Wind Dir Wind Speed Gust Speed Precip Events Conditions
12:53 AM 39.9 °F 36.7 °F 34.0 °F 79% 29.74 in 10.0 mi Variable 4.6 mph - N/A   Clear
1:53 AM 39.0 °F 36.8 °F 34.0 °F 82% 29.73 in 10.0 mi South 3.5 mph - N/A   Clear
2:53 AM 39.9 °F 36.7 °F 34.0 °F 79% 29.71 in 10.0 mi SSW 4.6 mph - N/A   Clear
3:53 AM 39.9 °F - 34.0 °F 79% 29.68 in 10.0 mi Calm Calm - N/A   Scattered Clouds
4:53 AM 39.0 °F 35.7 °F 34.0 °F 82% 29.66 in 10.0 mi SSW 4.6 mph - N/A   Overcast
5:53 AM 39.9 °F 37.8 °F 36.0 °F 86% 29.65 in 10.0 mi Variable 3.5 mph - N/A   Overcast
6:53 AM 39.9 °F - 36.0 °F 86% 29.64 in 10.0 mi Calm Calm - N/A   Overcast
7:53 AM 39.9 °F 37.8 °F 36.0 °F 86% 29.61 in 10.0 mi North 3.5 mph - N/A   Mostly Cloudy
8:53 AM 39.0 °F - 36.0 °F 89% 29.61 in 6.0 mi North - - N/A   Mostly Cloudy
9:53 AM 43.0 °F - 37.0 °F 80% 29.61 in 10.0 mi North - - N/A   Overcast
10:53 AM 44.1 °F - 37.9 °F 79% 29.56 in 10.0 mi North - - N/A   Overcast
11:53 AM 45.0 °F - 37.0 °F 74% 29.50 in 10.0 mi North - - N/A   Clear
12:53 PM 46.9 °F - 37.0 °F 68% 29.47 in 10.0 mi NE 6.9 mph - N/A   Overcast
1:53 PM 45.0 °F 41.2 °F 37.9 °F 76% 29.47 in 5.0 mi NNW 6.9 mph - 0.00 in Rain Light Rain
2:53 PM 43.0 °F 36.4 °F 39.9 °F 89% 29.49 in 4.0 mi NW 12.7 mph - 0.00 in Rain Light Rain
3:53 PM 36.0 °F 26.3 °F 34.0 °F 93% 29.52 in 6.0 mi NW 16.1 mph 28.8 mph 0.00 in Rain Light Rain
4:53 PM 35.1 °F 24.1 °F 32.0 °F 89% 29.57 in 2.5 mi NNW 19.6 mph 32.2 mph 0.00 in Snow Light Snow
5:23 PM 34.0 °F 22.1 °F 30.9 °F 89% 29.61 in 2.0 mi NNW 21.9 mph 32.2 mph 0.00 in Snow Light Snow
5:38 PM 34.0 °F 23.0 °F 30.9 °F 89% 29.62 in 1.8 mi NNW 18.4 mph 35.7 mph 0.00 in Snow Light Snow
5:49 PM 33.8 °F 23.2 °F 30.2 °F 87% 29.63 in 2.5 mi NNW 17.3 mph 31.1 mph 0.00 in Snow Light Snow
5:53 PM 34.0 °F 23.4 °F 30.9 °F 89% 29.64 in 3.0 mi NNW 17.3 mph 31.1 mph 0.00 in Snow Light Snow
6:53 PM 34.0 °F 22.7 °F 30.9 °F 89% 29.69 in 6.0 mi NNW 19.6 mph 32.2 mph 0.00 in   Overcast
7:21 PM 34.0 °F 23.0 °F 30.9 °F 89% 29.72 in 7.0 mi NW 18.4 mph 27.6 mph 0.00 in   Overcast
7:51 PM 33.8 °F 21.6 °F 28.4 °F 81% 29.74 in 9.0 mi NNW 23.0 mph 32.2 mph 0.00 in   Overcast
7:53 PM 34.0 °F 23.8 °F 28.0 °F 79% 29.74 in 9.0 mi NW 16.1 mph 32.2 mph 0.00 in   Overcast
8:53 PM 34.0 °F 26.0 °F 26.1 °F 73% 29.78 in 10.0 mi NW 10.4 mph 26.5 mph N/A   Mostly Cloudy
9:53 PM 35.1 °F 25.2 °F 21.0 °F 57% 29.83 in 10.0 mi NW 16.1 mph 32.2 mph N/A   Overcast
10:53 PM 33.1 °F 23.4 °F 19.0 °F 56% 29.88 in 10.0 mi NW 13.8 mph 28.8 mph N/A   Clear
11:53 PM 30.9 °F 21.7 °F 17.1 °F 57% 29.90 in 10.0 mi NW 11.5 mph 20.7 mph N/A   Clear